Dewpoint
37 36 36 36 35 35 35 35 35 36 36 36 36 37 37 37 37 38 38 39 39 40 41 41 42 43 43 43 43 44 44 45 44 44 45 46 46 43 43 41 42 42 43
35 35 34 34 33 33 33 33 34 34 35 34 35 35 35 35 35 35 36 36 36 37 38 38 39 39 38 39 39 40 41 42 43 41 42 42 43 44 44 42 42 40 40
33 32 32 32 32 32 32 33 33 33 33 33 33 33 34 34 34 34 34 34 34 35 36 36 36 36 35 36 36 37 37 37 39 39 39 40 41 42 41 37 37 38 37
32 32 32 32 32 32 33 33 32 33 32 33 32 33 32 32 33 32 32 33 33 34 35 34 34 34 34 33 33 34 35 36 37 37 37 38 39 39 33 34 36 35 36
31 31 32 32 32 32 31 31 30 30 31 30 30 30 30 31 30 32 32 32 32 32 32 33 33 33 33 33 33 32 32 33 34 34 34 35 35 36 36 37 33 36 36
30 30 31 30 30 30 29 29 29 29 29 29 29 29 29 30 33 34 34 31 31 30 30 31 31 32 33 34 34 35 33 33 33 33 32 32 33 34 35 34 34 33 32
30 29 29 29 29 28 28 28 28 28 28 28 28 28 28 28 33 33 34 31 30 30 30 30 29 30 31 32 32 32 32 33 35 34 32 32 32 32 33 32 32 32 32
29 29 28 28 27 27 27 27 27 27 27 27 27 27 27 28 32 32 31 30 29 29 29 30 30 30 30 31 32 31 29 29 31 33 33 33 34 34 33 32 32 32 30
28 27 27 27 25 26 23 25 26 25 25 24 27 24 24 29 31 31 30 29 28 28 28 29 30 30 32 33 31 29 29 29 31 33 35 35 36 35 35 32 30 28 25
27 26 26 26 23 22 24 23 24 23 28 28 28 29 29 30 30 30 30 28 28 27 28 29 30 31 31 30 30 30 29 30 32 32 30 31 32 31 32 30 30 26 25
26 25 24 24 20 21 21 23 20 21 24 21 25 26 29 27 25 30 30 28 27 27 27 27 27 30 30 30 32 31 31 31 30 29 30 27 26 25 24 24 24 24 25
22 22 19 16 19 21 13 14 15 16 17 19 20 24 24 25 29 28 29 29 30 30 29 27 28 30 30 31 30 31 30 28 30 27 24 24 23 22 23 22 22 21 22
16 11 11 13 15 15 12 12 15 14 15 19 21 23 24 27 28 29 28 28 30 30 30 29 29 31 32 32 30 31 29 27 25 23 22 22 25 25 26 24 23 23 21
8 10 12 11 11 12 17 18 11 11 16 18 20 21 23 25 26 27 28 29 30 30 31 28 29 30 30 28 28 27 28 28 26 24 23 25 26 24 23 24 22 22 19
9 12 11 13 9 11 14 13 16 15 16 18 22 23 23 23 25 28 30 28 29 32 30 28 27 26 26 25 19 20 21 22 23 25 25 25 24 22 21 22 22 20 17
8 11 10 9 9 12 12 14 17 20 21 23 24 24 25 26 27 28 31 28 29 32 22 25 25 24 22 22 14 14 15 18 21 21 21 22 21 20 19 19 18 16 14
4 4 4 8 7 6 6 9 11 13 18 19 21 23 24 25 26 30 30 28 29 30 24 22 23 22 22 16 13 14 14 17 16 17 17 17 19 17 17 17 17 15 13
-7 1 -2 0 1 2 3 4 7 10 10 12 17 20 22 24 25 26 27 26 23 19 21 19 16 17 13 11 12 12 13 13 13 13 13 14 15 15 14 12 13 10 8
-4 -2 -2 -2 -1 1 2 7 9 11 11 12 14 16 19 25 24 23 25 19 19 16 16 17 16 15 14 11 10 9 8 7 8 8 7 8 9 8 6 7 7 8 6
-9 -1 -1 -5 -4 -2 2 6 8 9 9 10 12 13 17 11 8 11 9 12 14 13 15 14 13 12 10 9 7 5 4 4 4 3 3 2 3 4 3 -0 0 -0 -2
-8 -6 -1 -6 -5 -2 -2 2 7 8 9 9 11 16 21 12 10 4 6 8 8 10 10 10 9 7 7 6 3 0 -1 -1 -1 -2 -4 -4 -5 -5 -7 -4 -7 -9 -10
-9 -8 -7 -7 -5 -2 0 3 4 7 9 11 12 11 17 7 7 4 3 4 5 6 6 6 5 3 1 1 -0 1 -1 -3 -5 -5 -5 -5 -7 -10 -10 -10 -11 -13 -17
-6 -7 -8 -8 -6 -2 -4 -5 1 0 4 -1 7 5 0 1 4 4 3 4 5 5 4 4 5 3 1 -1 -2 -3 -2 -4 -7 -7 -8 -11 -12 -13 -17 -17 -19 -19 -19
-10 -9 -8 -9 -9 -9 -9 -7 -4 -2 -4 -3 -2 -2 -1 -1 1 3 5 5 5 4 3 3 2 -1 -1 -2 -4 -6 -6 -6 -9 -9 -13 -13 -14 -15 -19 -22 -20 -20 -18
-11 -11 -10 -10 -12 -11 -11 -11 -9 -10 -10 -5 -7 -6 -5 -1 1 1 3 4 3 3 3 3 1 -1 -2 -3 -4 -5 -6 -4 -11 -10 -16 -15 -16 -19 -23 -23 -22 -21 -19
-12 -12 -13 -12 -13 -13 -13 -12 -13 -10 -9 -8 -9 -8 -6 -3 -2 2 3 3 2 2 2 2 2 1 -0 -0 -2 -3 -4 -2 -8 -8 -13 -11 -15 -22 -25 -24 -25 -23 -21
Lifted_Index
10 10 10 11 12 13 13 14 14 15 15 15 15 15 15 15 15 15 15 15 15 15 15 15 14 14 14 14 13 13 12 11 10 11 11 11 10 10 10 9 9 8 8
11 11 12 12 13 14 14 15 15 16 16 16 16 15 15 15 15 15 15 15 15 15 15 15 15 15 15 15 15 14 13 12 12 12 12 12 11 10 10 9 9 8 8
12 12 13 14 15 15 15 16 16 16 16 16 16 16 15 15 15 15 15 16 16 16 16 16 16 16 16 16 15 15 14 13 12 12 12 12 12 11 10 10 9 9 9
13 13 14 15 16 16 16 16 16 16 16 16 16 16 15 16 16 16 16 16 16 16 16 16 16 16 16 16 15 15 14 13 13 12 12 12 12 11 10 10 9 9 9
14 14 15 16 16 15 15 15 15 16 16 16 15 15 16 16 16 16 16 16 16 16 16 16 16 15 15 15 14 14 13 13 13 12 12 12 11 11 10 10 9 9 8
15 15 15 15 15 14 14 14 15 15 15 15 15 15 16 16 16 16 16 16 16 16 16 15 15 14 14 13 13 13 13 13 13 13 12 11 11 10 10 9 9 8 8
15 15 15 14 14 14 14 14 15 15 15 15 15 16 16 16 16 16 16 16 16 15 15 14 14 13 13 13 12 13 13 13 13 13 12 11 11 11 10 10 9 8 8
14 14 14 14 14 14 14 14 15 15 15 16 16 16 16 16 16 16 16 16 15 14 14 13 13 12 13 13 12 12 13 13 14 14 13 12 11 11 11 10 9 9 9
13 14 14 14 14 14 14 15 15 16 16 16 16 16 16 16 15 15 15 15 14 14 13 13 12 13 13 13 13 12 12 13 14 14 13 12 12 11 11 10 9 9 9
13 14 14 14 14 14 15 16 16 16 16 17 16 16 16 16 15 15 14 14 14 13 13 13 13 13 14 14 14 13 12 12 13 13 12 12 11 11 10 10 10 9 8
13 14 14 14 15 16 16 16 16 17 17 17 17 16 16 15 15 14 13 13 13 13 13 13 13 14 14 14 13 12 12 11 11 11 11 11 10 10 10 10 10 9 9
14 14 15 15 16 16 16 16 17 17 16 16 16 16 15 14 14 13 13 13 13 13 13 13 14 14 13 13 12 11 11 11 10 10 10 9 9 9 9 9 9 10 9
14 15 15 16 16 16 16 16 16 16 15 15 15 15 14 14 13 13 13 13 13 13 13 13 13 13 12 11 11 10 9 9 9 9 8 8 8 8 8 9 9 9 9
15 15 15 15 15 15 15 15 15 15 14 14 14 14 14 13 13 13 13 13 13 13 13 13 12 11 11 10 9 9 8 8 7 7 7 7 7 7 8 8 8 8 8
15 15 14 14 14 14 14 14 14 14 14 14 14 14 13 13 13 14 13 13 13 13 12 11 10 9 9 8 8 7 7 7 6 6 6 6 6 7 7 7 7 7 7
14 14 14 13 13 14 14 14 13 13 13 13 14 14 14 14 14 14 13 13 13 12 11 9 8 8 8 7 7 6 6 6 6 6 6 6 7 7 7 7 7 7 7
13 13 13 13 13 13 13 13 13 13 13 13 13 14 14 14 13 13 13 12 11 10 9 8 7 7 7 6 6 6 6 6 6 6 7 7 7 7 7 8 8 8 8
13 13 13 13 13 13 13 13 13 12 12 13 13 13 13 13 13 13 12 11 10 9 8 7 7 7 6 6 6 6 6 7 7 7 8 8 8 8 8 8 9 9 9
13 13 13 13 13 13 13 13 13 12 12 12 12 12 12 12 12 12 12 11 9 8 8 7 7 6 6 6 6 6 7 8 8 8 8 8 9 9 9 10 10 10 10
13 13 13 13 13 13 12 12 12 12 11 11 11 11 12 11 11 11 11 10 9 8 7 7 7 6 6 6 7 7 8 8 8 8 9 9 10 10 10 11 11 11 11
12 12 12 12 12 12 12 12 11 11 10 10 10 11 11 11 11 11 10 10 9 8 8 7 7 7 7 7 8 8 9 9 9 9 9 10 11 11 11 11 12 12 12
11 11 12 12 12 11 11 11 11 10 10 10 10 11 12 12 11 11 10 10 9 9 8 8 8 8 8 9 9 10 10 10 10 10 11 11 11 12 12 12 12 12 12
11 11 11 11 11 11 10 10 10 10 10 10 11 11 12 12 12 11 11 10 10 10 10 9 9 9 10 11 12 12 11 11 11 12 12 12 12 12 12 12 12 12 12
10 10 10 10 10 10 10 10 10 10 11 11 12 12 12 12 12 12 11 11 11 11 11 11 11 11 11 12 13 13 13 13 13 13 13 13 13 13 13 13 13 13 13
10 10 10 10 10 10 10 10 11 11 12 12 13 13 13 13 13 12 12 12 12 12 12 12 12 12 13 13 13 13 13 14 14 15 15 14 14 13 13 13 13 14 14
9 9 9 10 10 10 10 10 11 12 13 13 13 13 13 13 13 13 13 13 13 13 13 13 13 13 13 13 13 13 13 14 15 16 15 15 14 14 14 14 14 14 14